Miscellaneous Local Product
Issued by NWS Hastings, NE

Home | Current Version | Previous Version | Graphics & Text | Print | Product List | Glossary On
Versions: 1 2 3 4 5 6 7 8 9 10 11 12 13 14 15 16 17 18 19 20 21 22 23 24 25 26 27 28 29 30 31 32 33 34 35 36 37 38 39 40 41 42 43 44 45 46 47 48 49 50
000
AXUS43 KGID 281502
MISGRI

GID CWA HOURLY WEATHER ROUNDUP
NATIONAL WEATHER SERVICE HASTINGS NE
1000 AM CDT SAT MAY 28 2016

NOTE: "FAIR" INDICATES FEW OR NO CLOUDS BELOW 12,000 FEET WITH NO
SIGNIFICANT WEATHER AND/OR OBSTRUCTIONS TO VISIBILITY.

...SOUTH CENTRAL NEBRASKA...

CITY           SKY/WX    TMP DP  RH WIND       PRES   REMARKS
GRAND ISLAND   CLOUDY    62  55  77 W9        29.84R
HASTINGS       CLOUDY    61  54  77 W10       29.85R
KEARNEY        CLOUDY    63  55  77 W13       29.87R
ORD            CLOUDY    61  56  83 NW12      29.82R
YORK           CLOUDY    63  55  77 NW13      29.82S
AURORA         CLOUDY    61  57  87 W12       29.82S
LEXINGTON      SUNNY     63  56  78 NW12      29.89R
HOLDREGE       MOSUNNY   60  54  79 W8        29.88R
HEBRON         PTSUNNY   60  58  92 W7        29.84R

...NEBRASKA PANHANDLE...

CITY           SKY/WX    TMP DP  RH WIND       PRES   REMARKS
CHADRON        SUNNY     60  49  66 SW5       29.92S
ALLIANCE       SUNNY     58  48  69 NW5       29.94R
SCOTTSBLUFF    SUNNY     58  45  62 W8        29.97R
SIDNEY         SUNNY     58  45  62 W5        29.98R

...WESTERN AND NORTH CENTRAL NEBRASKA...

CITY           SKY/WX    TMP DP  RH WIND       PRES   REMARKS
VALENTINE      CLOUDY    60  51  72 NW8       29.88R
AINSWORTH      CLOUDY    58  53  84 NW9       29.87S
ONEILL         LGT RAIN  58  56  92 NW8       29.82R
BROKEN BOW     CLOUDY    60  55  83 NW13      29.86R
IMPERIAL       SUNNY     61  51  70 W5        29.95R
NORTH PLATTE   SUNNY     63  54  72 W7        29.91R
MCCOOK         SUNNY     63  54  72 W9        29.93R

...EASTERN NEBRASKA...

CITY           SKY/WX    TMP DP  RH WIND       PRES   REMARKS
NORFOLK        RAIN      58  56  93 W13       29.74S FOG
SO SIOUX CITY  CLOUDY    67  59  75 S9        29.74S
TEKAMAH        PTSUNNY   66  58  75 S13       29.76S
COLUMBUS       CLOUDY    63  52  67 W13       29.80R
ALBION         DRIZZLE   58  56  92 W15G21    29.80R
OMAHA EPPLEY   CLOUDY    65  60  84 S9        29.78R
OFFUTT AFB     CLOUDY    63  59  86 S7        29.78R
MILLARD        LGT RAIN  64  57  79 SW5       29.78S
LINCOLN        CLOUDY    65  57  75 W8        29.81R
NEBRASKA CITY  CLOUDY    63  61  93 W8        29.80R
BEATRICE       CLOUDY    61  57  88 NW7       29.83R
FALLS CITY     CLOUDY    64  60  87 W10       29.80R

...NORTHERN KANSAS...

CITY           SKY/WX    TMP DP  RH WIND       PRES   REMARKS
GOODLAND       SUNNY     60  50  69 W5        29.98R
HILL CITY      SUNNY     65  55  70 NW8       29.93R
NORTON         SUNNY     63  52  67 W9        29.92R
PHILLIPSBURG   SUNNY     64  57  77 W12       29.91R
SMITH CENTER   MOSUNNY   64  57  77 W7        29.90R
BELOIT         SUNNY     63  57  82 W5        29.88R
HAYS           SUNNY     63  52  67 NW8       29.92R
RUSSELL        MOSUNNY   63  57  81 NW13      29.90R
CONCORDIA      PTSUNNY   63  56  78 W9        29.87R
SALINA         PTSUNNY   65  58  78 W10       29.89R
TOPEKA         CLOUDY    67  60  78 W7        29.83R



USA.gov is the U.S. government's official web portal to all federal, state and local government web resources and services.